STARLINK-32450, 61969

Orbit data source: Space-Track

STARLINK-32450, 61969 is a payload satellite owned by SpaceX/Seattle (US) in LEO that was launched on Thu, 14 Nov 2024 UTC via an FALCON 9 launch vehicle from the Air Force Eastern Test Range (AFETR). Payload-class satellites include a variety of spacecraft equipped with specific instruments for various scientific and technological missions. These include communications satellites like Starlink; space stations such as the ISS; scientific satellites like the Hubble; Earth observation satellites from companies like Planet Labs, Umbra, and HawkEye 360; GPS; miniature CubeSats for education and research; and military/defense satellites.

Loading next visibility...
Identifier
61969, 2024-210L
Orbit
LEO
Country
Flag of USUS
Related business
Manufacturer
SpaceX/Seattle
Mission
Operational Commercial Communications
Bus & Motor
STARLINK V2M, Unknown motor
Mass
730 kg wet, ~700 kg dry
Launch date (UTC)
2024-11-14 (2 years ago)
Launch vehicle
FALCON 9
Launch site
Air Force Eastern Test Range (AFETR)
Object type
Payload
Rocket body
Debris
Shape & HBR
Box + 2 Pan, 17.7 m
Radar Cross Section
33.884 m², Large (>1 m²)

Expand to show TLE details & history
Last TLE update: 10 hours ago

TLE from 10 hours ago
0 STARLINK-32450
1 61969U 24210L   26171.42047429  .00016799  00000-0  61838-3 0  9990
2 61969  43.0027 312.5346 0002010 275.4780  84.5842 15.27590797 90573
Epoch: 2026-06-20T10:05Z
TLE epoch observation values (Epoch: 2026-06-20T10:05:28.978Z)
Latitude
-0.00005°
Longitude
-107.47155°
Altitude
482.663 km
Speed
7.626 km/s
True Right ascension
20h 50m 08s
True Declination
0° 00' 00"
Sunlit
Object was in full shadow at epoch
Visualization orbit readout
Latitude
Unknown
Longitude
Unknown
Altitude
Unknown
Speed
Unknown
Apparent Right ascension
Unknown
Apparent Declination
Unknown
Sunlit
N/A
Visualization observer readout
Local Sidereal Time
07:17:26
Azimuth
Unknown
Elevation
Unknown
Doppler factor
Unknown
Orbital elements
Apogee altitude
486.341 km
Perigee altitude
483.582 km
Semi-major axis
6,863.098 km
Eccentricity
0.0002
Inclination
43.0027°
RAAN
312.5346°
Arg. of periapsis
275.478°
True anomaly
84.60713°
Mean anomaly
84.5842°
Eccentric anomaly
84.59567°
Mean motion
3.81736 °/min
Orbital period
94.31 mins
BSTAR
0.00061838
Loading maneuver chart data...
Computing Atmospheric mass density...
Loading historical data...
Loading historical data...
Loading historical data...
Loading historical data...
Loading historical data...
Loading historical data...
Loading historical data...

Documentation

Showing up to 5 results
|